Regional Weather Roundup
Issued by NWS

Home | Current Version | Previous Version | Text Only | Print | Product List | Glossary On
Versions: 1 2 3 4 5 6 7 8 9 10 11 12 13 14 15 16 17 18 19 20 21 22 23 24 25 26 27 28 29 30 31 32 33 34 35 36 37 38 39 40 41 42 43 44 45 46 47 48 49 50
000
ASPQ40 PGUM 172312
RWRPQ
WEATHER ROUNDUP FOR THE MARIANAS AND MICRONESIA
NATIONAL WEATHER SERVICE TIYAN GU
900 AM CHST FRI AUG 18 2017

GUZ001>004-180000-
MARIANA ISLANDS-

CITY           SKY/WX    TMP DP  RH WIND       PRES   REMARKS
GUAM AIRPORT   LGT RAIN  79  73  83 E13       29.87R
ANDERSEN AFB   PTSUNNY   79  73  83 W6        29.92R
ROTA AIRPORT   PTSUNNY   81  77  89 VRB3      29.85R
TINIAN AP      PTSUNNY   82  77  83 S2        29.83R HX  91
SAIPAN AP      MOSUNNY   88  79  74 CALM      29.84R HX 102

$$

PMZ161-180000-
REPUBLIC OF PALAU-

CITY           SKY/WX    TMP DP  RH WIND       PRES   REMARKS
KOROR AP       PTSUNNY   81  77  89 CALM      29.81R
KOROR WSO      CLOUDY    82  77  83 NE7       29.82R HX  91

$$

PMZ171>174-180000-
FEDERATED STATES OF MICRONESIA-

CITY           SKY/WX    TMP DP  RH WIND       PRES   REMARKS
YAP AIRPORT    PTSUNNY   84  77  79 W12       29.80R HX  94
CHUUK AP       CLOUDY    84  79  84 VRB3      29.85R HX  96
POHNPEI AP     CLOUDY    90  77  66 NE12      29.80S HX 102
POHNPEI WSO    CLOUDY    90  77  66 NE6       29.84R HX 102
KOSRAE AP      PTSUNNY   88  77  70 SE6       29.79R HX 100

$$

PMZ181-180000-
REPUBLIC OF THE MARSHALL ISLANDS-

CITY           SKY/WX    TMP DP  RH WIND       PRES   REMARKS
KWAJALEIN AP   MOSUNNY   88  75  66 E13       29.83F HX  97
MAJURO AP      NOT AVBL
MAJURO WSO     MOSUNNY   88  75  66 E14       29.82F HX  97

$$




USA.gov is the U.S. government's official web portal to all federal, state and local government web resources and services.